Find Suxing-1 01

NORAD ID: 60749 Int'l Des: NNA 2024-153 Owner: GWCG Country: CN operational
LEOCIRCULARRETROGRADESSO

リアルタイム位置

3D地球を読み込み中...

Suxing-1 01について

説明を読み込み中...

次回通過

Passes for default location (London). Set your location on the main map for personalized predictions.

高度履歴

Loading altitude history...

軌道要素

1 60749U 24153E 26107.28777707 .00010228 00000-0 40658-3 0 9991
2 60749 97.6658 243.0459 0002211 121.7114 238.4339 15.25498262 90543
Epoch: Apr 17, 2026 • Age: 9 hours

現在のステータス

高度 495.4 km
速度 7.62 km/s
衛星直下点 -16.01°S, 19.08°W
打ち上げ日 Aug 29, 2024
運用期間 1.6 years
タイプ other

技術仕様

分類 Payload
質量 50.00 kg
乾燥質量 50.00 kg
総質量 50.00 kg
長さ 2.00 m
直径 1.50 m
スパン 5.00 m
形状 Box + pan
製造者 ASES
バスタイプ Suxing
フェーズステータス In Orbit
所有者/国 GWCG/CN

Most Searched